#datetime,building,power
2024-03-07T00:00:00,cen,8.40
2024-03-07T00:02:00,cen,8.40
2024-03-07T00:04:00,cen,9.60
2024-03-07T00:06:00,cen,8.40
2024-03-07T00:07:00,cen,3.60
2024-03-07T00:09:00,cen,8.40
2024-03-07T00:11:00,cen,8.40
2024-03-07T00:13:00,cen,9.60
2024-03-07T00:14:00,cen,3.60
2024-03-07T00:15:00,cen,3.60
2024-03-07T00:17:00,cen,8.40
2024-03-07T00:19:00,cen,9.60
2024-03-07T00:21:00,cen,8.40
2024-03-07T00:22:00,cen,6.00
2024-03-07T00:24:00,cen,8.40
2024-03-07T00:26:00,cen,8.40
2024-03-07T00:28:00,cen,9.60
2024-03-07T00:29:00,cen,3.60
2024-03-07T00:31:00,cen,8.40
2024-03-07T00:33:00,cen,8.40
2024-03-07T00:35:00,cen,8.40
2024-03-07T00:36:00,cen,3.60
2024-03-07T00:38:00,cen,7.20
2024-03-07T00:40:00,cen,8.40
2024-03-07T00:41:00,cen,4.80
2024-03-07T00:43:00,cen,10.80
2024-03-07T00:44:00,cen,3.60
2024-03-07T00:45:00,cen,4.80
2024-03-07T00:47:00,cen,7.20
2024-03-07T00:48:00,cen,4.80
2024-03-07T00:50:00,cen,7.20
2024-03-07T00:52:00,cen,9.60
2024-03-07T00:54:00,cen,7.20
2024-03-07T00:55:00,cen,4.80
2024-03-07T00:57:00,cen,8.40
2024-03-07T00:58:00,cen,3.60
2024-03-07T01:00:00,cen,8.40
2024-03-07T01:02:00,cen,8.40
2024-03-07T01:03:00,cen,4.80
2024-03-07T01:05:00,cen,9.60
2024-03-07T01:06:00,cen,3.60
2024-03-07T01:08:00,cen,9.60
2024-03-07T01:10:00,cen,7.20
2024-03-07T01:11:00,cen,3.60
2024-03-07T01:13:00,cen,8.40
2024-03-07T01:14:00,cen,3.60
2024-03-07T01:16:00,cen,7.20
2024-03-07T01:18:00,cen,8.40
2024-03-07T01:20:00,cen,8.40
2024-03-07T01:22:00,cen,8.40
2024-03-07T01:24:00,cen,8.40
2024-03-07T01:26:00,cen,9.60
2024-03-07T01:28:00,cen,7.20
2024-03-07T01:30:00,cen,8.40
2024-03-07T01:32:00,cen,8.40
2024-03-07T01:34:00,cen,8.40
2024-03-07T01:36:00,cen,8.40
2024-03-07T01:38:00,cen,8.40
2024-03-07T01:39:00,cen,2.40
2024-03-07T01:41:00,cen,8.40
2024-03-07T01:43:00,cen,9.60
2024-03-07T01:45:00,cen,8.40
2024-03-07T01:47:00,cen,7.20
2024-03-07T01:48:00,cen,4.80
2024-03-07T01:50:00,cen,8.40
2024-03-07T01:52:00,cen,9.60
2024-03-07T01:53:00,cen,3.60
2024-03-07T01:54:00,cen,4.80
2024-03-07T01:55:00,cen,4.80
2024-03-07T01:57:00,cen,7.20
2024-03-07T01:58:00,cen,4.80
2024-03-07T02:00:00,cen,15.60
2024-03-07T02:02:00,cen,25.20
2024-03-07T02:04:00,cen,24.00
2024-03-07T02:06:00,cen,10.80
2024-03-07T02:07:00,cen,3.60
2024-03-07T02:08:00,cen,3.60
2024-03-07T02:09:00,cen,4.80
2024-03-07T02:11:00,cen,7.20
2024-03-07T02:12:00,cen,3.60
2024-03-07T02:14:00,cen,8.40
2024-03-07T02:16:00,cen,8.40
2024-03-07T02:17:00,cen,3.60
2024-03-07T02:19:00,cen,8.40
2024-03-07T02:21:00,cen,8.40
2024-03-07T02:23:00,cen,8.40
2024-03-07T02:24:00,cen,4.80
2024-03-07T02:26:00,cen,7.20
2024-03-07T02:27:00,cen,4.80
2024-03-07T02:29:00,cen,8.40
2024-03-07T02:30:00,cen,4.80
2024-03-07T02:32:00,cen,8.40
2024-03-07T02:34:00,cen,7.20
2024-03-07T02:35:00,cen,3.60
2024-03-07T02:37:00,cen,8.40
2024-03-07T02:39:00,cen,9.60
2024-03-07T02:41:00,cen,7.20
2024-03-07T02:43:00,cen,8.40
2024-03-07T02:45:00,cen,8.40
2024-03-07T02:47:00,cen,8.40
2024-03-07T02:49:00,cen,7.20
2024-03-07T02:50:00,cen,4.80
2024-03-07T02:51:00,cen,3.60
2024-03-07T02:53:00,cen,9.60
2024-03-07T02:55:00,cen,8.40
2024-03-07T02:56:00,cen,3.60
2024-03-07T02:58:00,cen,8.40
2024-03-07T03:00:00,cen,7.20
2024-03-07T03:02:00,cen,9.60
2024-03-07T03:04:00,cen,8.40
2024-03-07T03:05:00,cen,4.80
2024-03-07T03:07:00,cen,8.40
2024-03-07T03:08:00,cen,3.60
2024-03-07T03:10:00,cen,8.40
2024-03-07T03:12:00,cen,7.20
2024-03-07T03:14:00,cen,8.40
2024-03-07T03:16:00,cen,9.60
2024-03-07T03:17:00,cen,4.80
2024-03-07T03:18:00,cen,4.80
2024-03-07T03:20:00,cen,9.60
2024-03-07T03:22:00,cen,8.40
2024-03-07T03:24:00,cen,8.40
2024-03-07T03:26:00,cen,8.40
2024-03-07T03:28:00,cen,7.20
2024-03-07T03:29:00,cen,3.60
2024-03-07T03:31:00,cen,8.40
2024-03-07T03:33:00,cen,9.60
2024-03-07T03:35:00,cen,7.20
2024-03-07T03:37:00,cen,8.40
2024-03-07T03:38:00,cen,3.60
2024-03-07T03:40:00,cen,8.40
2024-03-07T03:41:00,cen,6.00
2024-03-07T03:43:00,cen,8.40
2024-03-07T03:45:00,cen,8.40
2024-03-07T03:46:00,cen,2.40
2024-03-07T03:47:00,cen,4.80
2024-03-07T03:49:00,cen,8.40
2024-03-07T03:51:00,cen,8.40
2024-03-07T03:52:00,cen,3.60
2024-03-07T03:54:00,cen,8.40
2024-03-07T03:56:00,cen,8.40
2024-03-07T03:58:00,cen,8.40
2024-03-07T03:59:00,cen,3.60
2024-03-07T04:01:00,cen,7.20
2024-03-07T04:02:00,cen,3.60
2024-03-07T04:04:00,cen,8.40
2024-03-07T04:05:00,cen,4.80
2024-03-07T04:07:00,cen,9.60
2024-03-07T04:08:00,cen,4.80
2024-03-07T04:09:00,cen,4.80
2024-03-07T04:10:00,cen,4.80
2024-03-07T04:12:00,cen,12.00
2024-03-07T04:14:00,cen,9.60
2024-03-07T04:15:00,cen,8.40
2024-03-07T04:17:00,cen,10.80
2024-03-07T04:19:00,cen,13.20
2024-03-07T04:20:00,cen,4.80
2024-03-07T04:22:00,cen,14.40
2024-03-07T04:23:00,cen,6.00
2024-03-07T04:25:00,cen,10.80
2024-03-07T04:27:00,cen,12.00
2024-03-07T04:28:00,cen,4.80
2024-03-07T04:30:00,cen,13.20
2024-03-07T04:32:00,cen,10.80
2024-03-07T04:34:00,cen,12.00
2024-03-07T04:36:00,cen,14.40
2024-03-07T04:38:00,cen,12.00
2024-03-07T04:40:00,cen,10.80
2024-03-07T04:42:00,cen,12.00
2024-03-07T04:43:00,cen,4.80
2024-03-07T04:44:00,cen,6.00
2024-03-07T04:46:00,cen,12.00
2024-03-07T04:48:00,cen,10.80
2024-03-07T04:49:00,cen,4.80
2024-03-07T04:51:00,cen,13.20
2024-03-07T04:52:00,cen,8.40
2024-03-07T04:54:00,cen,22.80
2024-03-07T04:56:00,cen,26.40
2024-03-07T04:57:00,cen,13.20
2024-03-07T04:59:00,cen,13.20
2024-03-07T05:01:00,cen,10.80
2024-03-07T05:02:00,cen,4.80
2024-03-07T05:04:00,cen,8.40
2024-03-07T05:05:00,cen,4.80
2024-03-07T05:07:00,cen,9.60
2024-03-07T05:09:00,cen,9.60
2024-03-07T05:11:00,cen,7.20
2024-03-07T05:13:00,cen,8.40
2024-03-07T05:15:00,cen,8.40
2024-03-07T05:17:00,cen,9.60
2024-03-07T05:19:00,cen,9.60
2024-03-07T05:21:00,cen,8.40
2024-03-07T05:23:00,cen,8.40
2024-03-07T05:25:00,cen,8.40
2024-03-07T05:27:00,cen,8.40
2024-03-07T05:29:00,cen,8.40
2024-03-07T05:31:00,cen,10.80
2024-03-07T05:33:00,cen,7.20
2024-03-07T05:35:00,cen,8.40
2024-03-07T05:37:00,cen,7.20
2024-03-07T05:39:00,cen,9.60
2024-03-07T05:41:00,cen,8.40
2024-03-07T05:43:00,cen,8.40
2024-03-07T05:44:00,cen,3.60
2024-03-07T05:46:00,cen,8.40
2024-03-07T05:47:00,cen,4.80
2024-03-07T05:49:00,cen,7.20
2024-03-07T05:50:00,cen,2.40
2024-03-07T05:52:00,cen,8.40
2024-03-07T05:54:00,cen,10.80
2024-03-07T05:56:00,cen,7.20
2024-03-07T05:58:00,cen,8.40
2024-03-07T06:00:00,cen,7.20
2024-03-07T06:01:00,cen,6.00
2024-03-07T06:03:00,cen,7.20
2024-03-07T06:05:00,cen,9.60
2024-03-07T06:06:00,cen,4.80
2024-03-07T06:08:00,cen,8.40
2024-03-07T06:10:00,cen,9.60
2024-03-07T06:11:00,cen,4.80
2024-03-07T06:12:00,cen,3.60
2024-03-07T06:14:00,cen,8.40
2024-03-07T06:15:00,cen,3.60
2024-03-07T06:16:00,cen,4.80
2024-03-07T06:18:00,cen,9.60
2024-03-07T06:19:00,cen,4.80
2024-03-07T06:21:00,cen,7.20
2024-03-07T06:23:00,cen,8.40
2024-03-07T06:24:00,cen,4.80
2024-03-07T06:26:00,cen,7.20
2024-03-07T06:28:00,cen,7.20
2024-03-07T06:30:00,cen,8.40
2024-03-07T06:32:00,cen,9.60
2024-03-07T06:34:00,cen,9.60
2024-03-07T06:36:00,cen,8.40
2024-03-07T06:38:00,cen,7.20
2024-03-07T06:40:00,cen,7.20
2024-03-07T06:41:00,cen,4.80
2024-03-07T06:43:00,cen,8.40
2024-03-07T06:45:00,cen,7.20
2024-03-07T06:47:00,cen,9.60
2024-03-07T06:48:00,cen,4.80
2024-03-07T06:50:00,cen,8.40
2024-03-07T06:51:00,cen,3.60
2024-03-07T06:52:00,cen,6.00
2024-03-07T06:54:00,cen,10.80
2024-03-07T06:55:00,cen,3.60
2024-03-07T06:57:00,cen,9.60
2024-03-07T06:59:00,cen,8.40
2024-03-07T07:00:00,cen,6.00
2024-03-07T07:02:00,cen,9.60
2024-03-07T07:04:00,cen,9.60
2024-03-07T07:05:00,cen,6.00
2024-03-07T07:07:00,cen,14.40
2024-03-07T07:08:00,cen,6.00
2024-03-07T07:09:00,cen,7.20
2024-03-07T07:11:00,cen,13.20
2024-03-07T07:12:00,cen,7.20
2024-03-07T07:14:00,cen,14.40
2024-03-07T07:16:00,cen,14.40
2024-03-07T07:18:00,cen,14.40
2024-03-07T07:20:00,cen,14.40
2024-03-07T07:21:00,cen,7.20
2024-03-07T07:23:00,cen,14.40
2024-03-07T07:24:00,cen,7.20
2024-03-07T07:26:00,cen,14.40
2024-03-07T07:28:00,cen,14.40
2024-03-07T07:30:00,cen,14.40
2024-03-07T07:31:00,cen,7.20
2024-03-07T07:33:00,cen,15.60
2024-03-07T07:35:00,cen,14.40
2024-03-07T07:37:00,cen,13.20
2024-03-07T07:38:00,cen,7.20
2024-03-07T07:40:00,cen,14.40
2024-03-07T07:42:00,cen,15.60
2024-03-07T07:44:00,cen,13.20
2024-03-07T07:46:00,cen,14.40
2024-03-07T07:48:00,cen,15.60
2024-03-07T07:50:00,cen,13.20
2024-03-07T07:52:00,cen,13.20
2024-03-07T07:53:00,cen,7.20
2024-03-07T07:55:00,cen,15.60
2024-03-07T07:57:00,cen,12.00
2024-03-07T07:59:00,cen,13.20
2024-03-07T08:00:00,cen,6.00
2024-03-07T08:02:00,cen,24.00
2024-03-07T08:04:00,cen,31.20
2024-03-07T08:06:00,cen,28.80
2024-03-07T08:08:00,cen,15.60
2024-03-07T08:09:00,cen,7.20
2024-03-07T08:11:00,cen,19.20
2024-03-07T08:13:00,cen,15.60
2024-03-07T08:14:00,cen,7.20
2024-03-07T08:15:00,cen,8.40
2024-03-07T08:17:00,cen,15.60
2024-03-07T08:19:00,cen,18.00
2024-03-07T08:20:00,cen,8.40
2024-03-07T08:22:00,cen,18.00
2024-03-07T08:24:00,cen,16.80
2024-03-07T08:26:00,cen,16.80
2024-03-07T08:28:00,cen,18.00
2024-03-07T08:29:00,cen,7.20
2024-03-07T08:30:00,cen,9.60
2024-03-07T08:32:00,cen,16.80
2024-03-07T08:34:00,cen,16.80
2024-03-07T08:35:00,cen,13.20
2024-03-07T08:37:00,cen,20.40
2024-03-07T08:39:00,cen,21.60
2024-03-07T08:41:00,cen,18.00
2024-03-07T08:42:00,cen,9.60
2024-03-07T08:43:00,cen,7.20
2024-03-07T08:44:00,cen,9.60
2024-03-07T08:46:00,cen,18.00
2024-03-07T08:48:00,cen,19.20
2024-03-07T08:50:00,cen,16.80
2024-03-07T08:51:00,cen,8.40
2024-03-07T08:53:00,cen,18.00
2024-03-07T08:55:00,cen,18.00
2024-03-07T08:56:00,cen,8.40
2024-03-07T08:58:00,cen,16.80
2024-03-07T08:59:00,cen,8.40
2024-03-07T09:00:00,cen,8.40
2024-03-07T09:01:00,cen,8.40
2024-03-07T09:03:00,cen,18.00
2024-03-07T09:04:00,cen,8.40
2024-03-07T09:06:00,cen,18.00
2024-03-07T09:08:00,cen,16.80
2024-03-07T09:09:00,cen,10.80
2024-03-07T09:11:00,cen,16.80
2024-03-07T09:13:00,cen,16.80
2024-03-07T09:15:00,cen,16.80
2024-03-07T09:16:00,cen,8.40
2024-03-07T09:18:00,cen,19.20
2024-03-07T09:20:00,cen,18.00
2024-03-07T09:21:00,cen,8.40
2024-03-07T09:23:00,cen,16.80
2024-03-07T09:25:00,cen,16.80
2024-03-07T09:27:00,cen,16.80
2024-03-07T09:29:00,cen,16.80
2024-03-07T09:31:00,cen,18.00
2024-03-07T09:32:00,cen,8.40
2024-03-07T09:34:00,cen,15.60
2024-03-07T09:36:00,cen,22.80
2024-03-07T09:38:00,cen,32.40
2024-03-07T09:39:00,cen,18.00
2024-03-07T09:40:00,cen,15.60
2024-03-07T09:41:00,cen,13.20
2024-03-07T09:43:00,cen,16.80
2024-03-07T09:45:00,cen,15.60
2024-03-07T09:47:00,cen,16.80
2024-03-07T09:49:00,cen,16.80
2024-03-07T09:50:00,cen,9.60
2024-03-07T09:51:00,cen,7.20
2024-03-07T09:53:00,cen,18.00
2024-03-07T09:55:00,cen,18.00
2024-03-07T09:57:00,cen,18.00
2024-03-07T09:59:00,cen,18.00
2024-03-07T10:01:00,cen,16.80
2024-03-07T10:03:00,cen,18.00
2024-03-07T10:04:00,cen,13.20
2024-03-07T10:06:00,cen,19.20
2024-03-07T10:08:00,cen,20.40
2024-03-07T10:09:00,cen,15.60
2024-03-07T10:11:00,cen,18.00
2024-03-07T10:12:00,cen,8.40
2024-03-07T10:14:00,cen,19.20
2024-03-07T10:15:00,cen,9.60
2024-03-07T10:16:00,cen,8.40
2024-03-07T10:18:00,cen,22.80
2024-03-07T10:20:00,cen,20.40
2024-03-07T10:22:00,cen,21.60
2024-03-07T10:24:00,cen,20.40
2024-03-07T10:25:00,cen,10.80
2024-03-07T10:26:00,cen,9.60
2024-03-07T10:28:00,cen,20.40
2024-03-07T10:30:00,cen,20.40
2024-03-07T10:31:00,cen,9.60
2024-03-07T10:33:00,cen,21.60
2024-03-07T10:34:00,cen,9.60
2024-03-07T10:36:00,cen,20.40
2024-03-07T10:37:00,cen,8.40
2024-03-07T10:39:00,cen,20.40
2024-03-07T10:41:00,cen,21.60
2024-03-07T10:43:00,cen,21.60
2024-03-07T10:44:00,cen,12.00
2024-03-07T10:46:00,cen,21.60
2024-03-07T10:48:00,cen,20.40
2024-03-07T10:50:00,cen,21.60
2024-03-07T10:52:00,cen,22.80
2024-03-07T10:54:00,cen,24.00
2024-03-07T10:56:00,cen,24.00
2024-03-07T10:58:00,cen,25.20
2024-03-07T10:59:00,cen,12.00
2024-03-07T11:01:00,cen,26.40
2024-03-07T11:02:00,cen,10.80
2024-03-07T11:04:00,cen,24.00
2024-03-07T11:06:00,cen,22.80
2024-03-07T11:08:00,cen,24.00
2024-03-07T11:10:00,cen,32.40
2024-03-07T11:12:00,cen,42.00
2024-03-07T11:14:00,cen,39.60
2024-03-07T11:16:00,cen,30.00
2024-03-07T11:17:00,cen,13.20
2024-03-07T11:18:00,cen,14.40
2024-03-07T11:20:00,cen,26.40
2024-03-07T11:22:00,cen,25.20
2024-03-07T11:23:00,cen,13.20
2024-03-07T11:25:00,cen,24.00
2024-03-07T11:26:00,cen,12.00
2024-03-07T11:27:00,cen,13.20
2024-03-07T11:29:00,cen,24.00
2024-03-07T11:30:00,cen,12.00
2024-03-07T11:32:00,cen,22.80
2024-03-07T11:33:00,cen,13.20
2024-03-07T11:34:00,cen,10.80
2024-03-07T11:36:00,cen,22.80
2024-03-07T11:37:00,cen,12.00
2024-03-07T11:39:00,cen,21.60
2024-03-07T11:41:00,cen,22.80
2024-03-07T11:42:00,cen,12.00
2024-03-07T11:44:00,cen,22.80
2024-03-07T11:46:00,cen,22.80
2024-03-07T11:48:00,cen,21.60
2024-03-07T11:49:00,cen,10.80
2024-03-07T11:51:00,cen,24.00
2024-03-07T11:53:00,cen,24.00
2024-03-07T11:55:00,cen,22.80
2024-03-07T11:56:00,cen,12.00
2024-03-07T11:58:00,cen,25.20
2024-03-07T12:00:00,cen,24.00
2024-03-07T12:02:00,cen,27.60
2024-03-07T12:03:00,cen,12.00
2024-03-07T12:04:00,cen,15.60
2024-03-07T12:06:00,cen,24.00
2024-03-07T12:07:00,cen,12.00
2024-03-07T12:09:00,cen,24.00
2024-03-07T12:11:00,cen,24.00
2024-03-07T12:12:00,cen,10.80
2024-03-07T12:14:00,cen,21.60
2024-03-07T12:16:00,cen,24.00
2024-03-07T12:18:00,cen,24.00
2024-03-07T12:20:00,cen,24.00
2024-03-07T12:22:00,cen,24.00
2024-03-07T12:24:00,cen,22.80
2024-03-07T12:26:00,cen,21.60
2024-03-07T12:28:00,cen,21.60
2024-03-07T12:30:00,cen,22.80
2024-03-07T12:31:00,cen,9.60
2024-03-07T12:32:00,cen,10.80
2024-03-07T12:34:00,cen,20.40
2024-03-07T12:36:00,cen,21.60
2024-03-07T12:38:00,cen,24.00
2024-03-07T12:40:00,cen,20.40
2024-03-07T12:42:00,cen,20.40
2024-03-07T12:44:00,cen,21.60
2024-03-07T12:45:00,cen,9.60
2024-03-07T12:47:00,cen,28.80
2024-03-07T12:48:00,cen,18.00
2024-03-07T12:50:00,cen,37.20
2024-03-07T12:51:00,cen,15.60
2024-03-07T12:53:00,cen,20.40
2024-03-07T12:55:00,cen,24.00
2024-03-07T12:56:00,cen,9.60
2024-03-07T12:58:00,cen,20.40
2024-03-07T13:00:00,cen,20.40
2024-03-07T13:02:00,cen,20.40
2024-03-07T13:04:00,cen,20.40
2024-03-07T13:06:00,cen,24.00
2024-03-07T13:07:00,cen,10.80
2024-03-07T13:09:00,cen,21.60
2024-03-07T13:10:00,cen,9.60
2024-03-07T13:12:00,cen,19.20
2024-03-07T13:14:00,cen,19.20
2024-03-07T13:15:00,cen,9.60
2024-03-07T13:17:00,cen,20.40
2024-03-07T13:19:00,cen,20.40
2024-03-07T13:21:00,cen,18.00
2024-03-07T13:23:00,cen,24.00
2024-03-07T13:25:00,cen,25.20
2024-03-07T13:27:00,cen,21.60
2024-03-07T13:28:00,cen,10.80
2024-03-07T13:30:00,cen,25.20
2024-03-07T13:32:00,cen,25.20
2024-03-07T13:33:00,cen,12.00
2024-03-07T13:35:00,cen,26.40
2024-03-07T13:37:00,cen,25.20
2024-03-07T13:38:00,cen,13.20
2024-03-07T13:40:00,cen,25.20
2024-03-07T13:41:00,cen,16.80
2024-03-07T13:43:00,cen,26.40
2024-03-07T13:45:00,cen,25.20
2024-03-07T13:47:00,cen,25.20
2024-03-07T13:48:00,cen,12.00
2024-03-07T13:49:00,cen,10.80
2024-03-07T13:51:00,cen,26.40
2024-03-07T13:53:00,cen,22.80
2024-03-07T13:55:00,cen,26.40
2024-03-07T13:56:00,cen,10.80
2024-03-07T13:58:00,cen,22.80
2024-03-07T14:00:00,cen,25.20
2024-03-07T14:01:00,cen,13.20
2024-03-07T14:03:00,cen,26.40
2024-03-07T14:04:00,cen,14.40
2024-03-07T14:05:00,cen,13.20
2024-03-07T14:07:00,cen,27.60
2024-03-07T14:09:00,cen,31.20
2024-03-07T14:11:00,cen,30.00
2024-03-07T14:13:00,cen,26.40
2024-03-07T14:15:00,cen,26.40
2024-03-07T14:17:00,cen,28.80
2024-03-07T14:19:00,cen,28.80
2024-03-07T14:21:00,cen,37.20
2024-03-07T14:23:00,cen,36.01
2024-03-07T14:24:00,cen,21.60
2024-03-07T14:26:00,cen,39.60
2024-03-07T14:28:00,cen,26.40
2024-03-07T14:29:00,cen,12.00
2024-03-07T14:31:00,cen,26.40
2024-03-07T14:32:00,cen,13.20
2024-03-07T14:34:00,cen,28.80
2024-03-07T14:36:00,cen,25.20
2024-03-07T14:38:00,cen,26.40
2024-03-07T14:39:00,cen,12.00
2024-03-07T14:41:00,cen,26.40
2024-03-07T14:43:00,cen,26.40
2024-03-07T14:45:00,cen,26.40
2024-03-07T14:47:00,cen,27.60
2024-03-07T14:49:00,cen,26.40
2024-03-07T14:50:00,cen,14.40
2024-03-07T14:52:00,cen,27.60
2024-03-07T14:53:00,cen,15.60
2024-03-07T14:55:00,cen,27.60
2024-03-07T14:56:00,cen,12.00
2024-03-07T14:58:00,cen,21.60
2024-03-07T14:59:00,cen,12.00
2024-03-07T15:01:00,cen,23.99
2024-03-07T15:03:00,cen,22.80
2024-03-07T15:04:00,cen,12.00
2024-03-07T15:06:00,cen,24.00
2024-03-07T15:08:00,cen,27.60
2024-03-07T15:09:00,cen,10.80
2024-03-07T15:11:00,cen,21.61
2024-03-07T15:12:00,cen,10.80
2024-03-07T15:14:00,cen,21.60
2024-03-07T15:15:00,cen,9.60
2024-03-07T15:17:00,cen,22.80
2024-03-07T15:19:00,cen,20.40
2024-03-07T15:20:00,cen,10.80
2024-03-07T15:22:00,cen,20.40
2024-03-07T15:24:00,cen,20.40
2024-03-07T15:26:00,cen,19.20
2024-03-07T15:28:00,cen,25.20
2024-03-07T15:29:00,cen,12.00
2024-03-07T15:31:00,cen,22.80
2024-03-07T15:33:00,cen,22.80
2024-03-07T15:35:00,cen,21.60
2024-03-07T15:36:00,cen,9.60
2024-03-07T15:38:00,cen,20.40
2024-03-07T15:39:00,cen,10.80
2024-03-07T15:41:00,cen,21.61
2024-03-07T15:43:00,cen,25.20
2024-03-07T15:45:00,cen,20.40
2024-03-07T15:46:00,cen,9.60
2024-03-07T15:48:00,cen,20.40
2024-03-07T15:50:00,cen,20.41
2024-03-07T15:52:00,cen,20.40
2024-03-07T15:54:00,cen,20.40
2024-03-07T15:56:00,cen,19.20
2024-03-07T15:58:00,cen,34.80
2024-03-07T15:59:00,cen,19.20
2024-03-07T16:00:00,cen,19.20
2024-03-07T16:02:00,cen,31.20
2024-03-07T16:04:00,cen,20.40
2024-03-07T16:06:00,cen,19.20
2024-03-07T16:08:00,cen,22.79
2024-03-07T16:10:00,cen,19.20
2024-03-07T16:12:00,cen,20.40
2024-03-07T16:13:00,cen,8.40
2024-03-07T16:15:00,cen,18.00
2024-03-07T16:16:00,cen,9.59
2024-03-07T16:17:00,cen,9.60
2024-03-07T16:19:00,cen,21.60
2024-03-07T16:21:00,cen,24.00
2024-03-07T16:23:00,cen,21.60
2024-03-07T16:25:00,cen,19.20
2024-03-07T16:26:00,cen,9.59
2024-03-07T16:28:00,cen,19.20
2024-03-07T16:30:00,cen,19.20
2024-03-07T16:32:00,cen,19.20
2024-03-07T16:34:00,cen,19.20
2024-03-07T16:36:00,cen,18.00
2024-03-07T16:38:00,cen,20.40
2024-03-07T16:39:00,cen,7.20
2024-03-07T16:41:00,cen,15.60
2024-03-07T16:43:00,cen,15.60
2024-03-07T16:45:00,cen,16.80
2024-03-07T16:47:00,cen,15.60
2024-03-07T16:49:00,cen,14.40
2024-03-07T16:51:00,cen,15.60
2024-03-07T16:52:00,cen,10.80
2024-03-07T16:54:00,cen,16.80
2024-03-07T16:55:00,cen,8.40
2024-03-07T16:57:00,cen,14.40
2024-03-07T16:59:00,cen,15.60
2024-03-07T17:01:00,cen,16.79
2024-03-07T17:02:00,cen,8.40
2024-03-07T17:04:00,cen,16.80
2024-03-07T17:05:00,cen,8.40
2024-03-07T17:06:00,cen,8.40
2024-03-07T17:08:00,cen,15.60
2024-03-07T17:10:00,cen,14.40
2024-03-07T17:11:00,cen,9.60
2024-03-07T17:13:00,cen,15.60
2024-03-07T17:15:00,cen,14.40
2024-03-07T17:17:00,cen,15.60
2024-03-07T17:18:00,cen,7.20
2024-03-07T17:20:00,cen,15.59
2024-03-07T17:22:00,cen,14.41
2024-03-07T17:24:00,cen,14.40
2024-03-07T17:26:00,cen,14.40
2024-03-07T17:28:00,cen,16.79
2024-03-07T17:30:00,cen,15.60
2024-03-07T17:32:00,cen,14.40
2024-03-07T17:34:00,cen,15.60
2024-03-07T17:35:00,cen,8.40
2024-03-07T17:37:00,cen,15.60
2024-03-07T17:39:00,cen,15.60
2024-03-07T17:40:00,cen,7.20
2024-03-07T17:41:00,cen,7.20
2024-03-07T17:43:00,cen,14.40
2024-03-07T17:44:00,cen,7.20
2024-03-07T17:45:00,cen,6.01
2024-03-07T17:47:00,cen,15.59
2024-03-07T17:48:00,cen,9.60
2024-03-07T17:50:00,cen,14.40
2024-03-07T17:51:00,cen,7.20
2024-03-07T17:53:00,cen,15.60
2024-03-07T17:55:00,cen,14.40
2024-03-07T17:57:00,cen,15.60
2024-03-07T17:59:00,cen,14.40
2024-03-07T18:00:00,cen,7.20
2024-03-07T18:02:00,cen,13.21
2024-03-07T18:04:00,cen,15.59
2024-03-07T18:05:00,cen,4.80
2024-03-07T18:06:00,cen,4.80
2024-03-07T18:08:00,cen,8.40
2024-03-07T18:10:00,cen,8.40
2024-03-07T18:12:00,cen,7.20
2024-03-07T18:14:00,cen,9.60
2024-03-07T18:16:00,cen,8.40
2024-03-07T18:18:00,cen,8.39
2024-03-07T18:20:00,cen,8.40
2024-03-07T18:22:00,cen,9.60
2024-03-07T18:24:00,cen,8.40
2024-03-07T18:25:00,cen,3.60
2024-03-07T18:27:00,cen,9.60
2024-03-07T18:29:00,cen,8.40
2024-03-07T18:31:00,cen,7.20
2024-03-07T18:33:00,cen,8.40
2024-03-07T18:34:00,cen,3.60
2024-03-07T18:36:00,cen,8.39
2024-03-07T18:38:00,cen,9.60
2024-03-07T18:40:00,cen,25.20
2024-03-07T18:41:00,cen,13.20
2024-03-07T18:42:00,cen,10.80
2024-03-07T18:43:00,cen,13.20
2024-03-07T18:45:00,cen,9.60
2024-03-07T18:46:00,cen,3.60
2024-03-07T18:47:00,cen,4.80
2024-03-07T18:49:00,cen,9.60
2024-03-07T18:51:00,cen,8.40
2024-03-07T18:53:00,cen,8.40
2024-03-07T18:55:00,cen,7.20
2024-03-07T18:57:00,cen,8.40
2024-03-07T18:59:00,cen,8.40
2024-03-07T19:01:00,cen,8.40
2024-03-07T19:02:00,cen,4.80
2024-03-07T19:04:00,cen,8.40
2024-03-07T19:06:00,cen,9.60
2024-03-07T19:07:00,cen,3.60
2024-03-07T19:08:00,cen,4.80
2024-03-07T19:10:00,cen,8.40
2024-03-07T19:11:00,cen,3.60
2024-03-07T19:13:00,cen,9.60
2024-03-07T19:15:00,cen,9.59
2024-03-07T19:16:00,cen,3.60
2024-03-07T19:18:00,cen,8.40
2024-03-07T19:20:00,cen,8.40
2024-03-07T19:22:00,cen,8.39
2024-03-07T19:24:00,cen,8.40
2024-03-07T19:26:00,cen,9.60
2024-03-07T19:28:00,cen,8.40
2024-03-07T19:29:00,cen,3.60
2024-03-07T19:31:00,cen,9.60
2024-03-07T19:33:00,cen,8.40
2024-03-07T19:34:00,cen,3.60
2024-03-07T19:36:00,cen,8.39
2024-03-07T19:37:00,cen,3.60
2024-03-07T19:38:00,cen,4.80
2024-03-07T19:40:00,cen,8.40
2024-03-07T19:42:00,cen,9.60
2024-03-07T19:44:00,cen,7.20
2024-03-07T19:46:00,cen,8.40
2024-03-07T19:48:00,cen,8.40
2024-03-07T19:50:00,cen,9.59
2024-03-07T19:51:00,cen,3.60
2024-03-07T19:53:00,cen,7.20
2024-03-07T19:54:00,cen,3.60
2024-03-07T19:56:00,cen,8.40
2024-03-07T19:57:00,cen,4.80
2024-03-07T19:58:00,cen,3.60
2024-03-07T20:00:00,cen,9.60
2024-03-07T20:02:00,cen,8.40
2024-03-07T20:04:00,cen,7.20
2024-03-07T20:06:00,cen,8.40
2024-03-07T20:07:00,cen,3.60
2024-03-07T20:09:00,cen,8.40
2024-03-07T20:10:00,cen,4.80
2024-03-07T20:12:00,cen,7.20
2024-03-07T20:14:00,cen,9.59
2024-03-07T20:16:00,cen,7.20
2024-03-07T20:18:00,cen,9.60
2024-03-07T20:19:00,cen,3.60
2024-03-07T20:21:00,cen,8.39
2024-03-07T20:22:00,cen,3.60
2024-03-07T20:23:00,cen,3.60
2024-03-07T20:25:00,cen,9.60
2024-03-07T20:26:00,cen,4.80
2024-03-07T20:28:00,cen,9.59
2024-03-07T20:30:00,cen,8.40
2024-03-07T20:32:00,cen,9.60
2024-03-07T20:34:00,cen,9.60
2024-03-07T20:36:00,cen,9.59
2024-03-07T20:38:00,cen,10.80
2024-03-07T20:40:00,cen,8.40
2024-03-07T20:42:00,cen,7.20
2024-03-07T20:44:00,cen,9.60
2024-03-07T20:45:00,cen,4.80
2024-03-07T20:47:00,cen,8.40
2024-03-07T20:48:00,cen,4.80
2024-03-07T20:49:00,cen,3.60
2024-03-07T20:51:00,cen,9.59
2024-03-07T20:53:00,cen,8.40
2024-03-07T20:55:00,cen,9.60
2024-03-07T20:57:00,cen,7.20
2024-03-07T20:59:00,cen,8.40
2024-03-07T21:00:00,cen,4.80
2024-03-07T21:02:00,cen,8.40
2024-03-07T21:03:00,cen,4.80
2024-03-07T21:05:00,cen,9.60
2024-03-07T21:06:00,cen,3.60
2024-03-07T21:08:00,cen,8.40
2024-03-07T21:09:00,cen,3.60
2024-03-07T21:11:00,cen,8.40
2024-03-07T21:13:00,cen,9.60
2024-03-07T21:15:00,cen,8.40
2024-03-07T21:17:00,cen,7.20
2024-03-07T21:19:00,cen,8.40
2024-03-07T21:21:00,cen,8.39
2024-03-07T21:22:00,cen,3.60
2024-03-07T21:24:00,cen,8.40
2024-03-07T21:25:00,cen,4.80
2024-03-07T21:27:00,cen,8.40
2024-03-07T21:29:00,cen,8.40
2024-03-07T21:31:00,cen,7.20
2024-03-07T21:32:00,cen,3.60
2024-03-07T21:34:00,cen,8.40
2024-03-07T21:35:00,cen,4.80
2024-03-07T21:37:00,cen,9.59
2024-03-07T21:39:00,cen,8.40
2024-03-07T21:41:00,cen,7.20
2024-03-07T21:43:00,cen,9.60
2024-03-07T21:44:00,cen,4.80
2024-03-07T21:46:00,cen,8.40
2024-03-07T21:48:00,cen,8.40
2024-03-07T21:50:00,cen,8.40
2024-03-07T21:52:00,cen,8.40
2024-03-07T21:54:00,cen,8.40
2024-03-07T21:56:00,cen,22.80
2024-03-07T21:57:00,cen,12.00
2024-03-07T21:58:00,cen,13.20
2024-03-07T22:00:00,cen,22.80
2024-03-07T22:02:00,cen,8.40
2024-03-07T22:03:00,cen,3.60
2024-03-07T22:05:00,cen,8.40
2024-03-07T22:07:00,cen,7.20
2024-03-07T22:09:00,cen,9.59
2024-03-07T22:10:00,cen,3.60
2024-03-07T22:12:00,cen,8.40
2024-03-07T22:14:00,cen,7.20
2024-03-07T22:16:00,cen,8.40
2024-03-07T22:18:00,cen,9.59
2024-03-07T22:20:00,cen,8.40
2024-03-07T22:22:00,cen,8.40
2024-03-07T22:24:00,cen,10.80
2024-03-07T22:26:00,cen,9.60
2024-03-07T22:27:00,cen,6.00
2024-03-07T22:28:00,cen,3.60
2024-03-07T22:30:00,cen,9.60
2024-03-07T22:31:00,cen,4.80
2024-03-07T22:33:00,cen,9.60
2024-03-07T22:35:00,cen,9.60
2024-03-07T22:36:00,cen,3.60
2024-03-07T22:38:00,cen,8.40
2024-03-07T22:39:00,cen,2.40
2024-03-07T22:41:00,cen,9.60
2024-03-07T22:43:00,cen,8.39
2024-03-07T22:45:00,cen,8.40
2024-03-07T22:47:00,cen,10.80
2024-03-07T22:48:00,cen,3.60
2024-03-07T22:50:00,cen,9.60
2024-03-07T22:52:00,cen,8.40
2024-03-07T22:53:00,cen,4.80
2024-03-07T22:55:00,cen,8.40